Regional Weather Roundup
Issued by NWS Boston, MA

Home | Current Version | Previous Version | Text Only | Print | Product List | Glossary On
Versions: 1 2 3 4 5 6 7 8 9 10 11 12 13 14 15 16 17 18 19 20 21 22 23 24 25 26 27 28 29 30 31 32 33 34 35 36 37 38 39 40 41 42 43 44 45 46 47
000
ASUS41 KBOX 202010
RWRBOX

REGIONAL WEATHER ROUNDUP
NATIONAL WEATHER SERVICE TAUNTON MA
400 PM EDT SAT SEP 20 2014

NOTE:  "FAIR" INDICATES FEW OR NO CLOUDS BELOW 12,000 FEET WITH NO
SIGNIFICANT WEATHER AND/OR OBSTRUCTIONS TO VISIBILITY.  THE FOLLOWING
OBSERVATION LOCATIONS DO NOT REPORT PRESENT WEATHER...PROVINCETOWN...
SMITHFIELD...BLOCK ISLAND...KEENE...AND OXFORD.

MAZALL-202100-
EASTERN MASSACHUSETTS

CITY           SKY/WX    TMP DP  RH WIND       PRES   REMARKS
BOSTON         PTSUNNY   71  53  52 SW16      30.16F
BEVERLY        PTSUNNY   70  52  52 SW13G20   30.15F
LAWRENCE       PTSUNNY   70  54  56 S7        30.17F
BEDFORD        CLOUDY    70  54  56 S9        30.15F
BLUE HILL        N/A     68  53  58 SW15G23   30.17F
NORWOOD        PTSUNNY   70  53  54 SW15      30.17F
MARSHFIELD     NOT AVBL
PLYMOUTH       PTSUNNY   67  53  61 S9        30.21F
TAUNTON        MOSUNNY   71  52  50 S10G18    30.19F
NEW BEDFORD    CLOUDY    69  56  62 S14       30.21F
$$

MAZALL-202100-
CAPE COD AND THE ISLANDS

CITY           SKY/WX    TMP DP  RH WIND       PRES   REMARKS
FALMOUTH       SUNNY     68  54  60 S16       30.21F
HYANNIS        SUNNY     68  55  63 S12       30.21F
CHATHAM        SUNNY     67  55  65 VRB7      30.24F
PROVINCETOWN   SUNNY     68  54  60 S14G22    30.21F
NANTUCKET      SUNNY     67  56  67 SE14      30.22F
MARTHAS VNYRD  SUNNY     68  57  68 S15       30.21F
$$

MAZALL-202100-
CENTRAL AND WESTERN MASSACHUSETTS

CITY           SKY/WX    TMP DP  RH WIND       PRES   REMARKS
WORCESTER      CLOUDY    66  53  63 S10       30.17F
FITCHBURG      PTSUNNY   72  54  53 S9        30.16F
ORANGE         PTSUNNY   70  55  59 S16       30.14F
SPRINGFIELD    PTSUNNY   72  57  58 S15       30.13F
WESTFIELD      CLOUDY    71  55  56 S15G22    30.13F
NORTH ADAMS    CLOUDY    70  56  61 S10G16    30.12F
PITTSFIELD     MOSUNNY   66  56  70 S14       30.12F
$$

RIZALL-202100-
RHODE ISLAND

CITY           SKY/WX    TMP DP  RH WIND       PRES   REMARKS
PROVIDENCE     PTSUNNY   69  51  52 S15       30.20F
NEWPORT        MOSUNNY   70  54  56 S14       30.21F
BLOCK ISLAND   SUNNY     72  54  53 S14       30.22S
SMITHFIELD     MOSUNNY   66  50  55 S6        30.19F
WESTERLY       MOSUNNY   71  52  50 SW12      30.21F
$$

CTZALL-202100-
CONNECTICUT

CITY           SKY/WX    TMP DP  RH WIND       PRES   REMARKS
BRADLEY INTL   CLOUDY    73  54  51 S14G23    30.14F
HARTFORD       CLOUDY    73  56  54 S14G20    30.16F
BRIDGEPORT     CLOUDY    73  57  57 S12       30.19F
DANBURY        CLOUDY    69  56  62 S13G18    30.18F
GROTON         PTSUNNY   69  57  65 S14       30.19F
NEW HAVEN      PTSUNNY   73  56  54 S12G18    30.20F
CHESTER        PTSUNNY   68  55  64 S7        30.21S
MERIDEN        CLOUDY    73  54  51 S15G23    30.18F
WILLIMANTIC    PTSUNNY   70  55  59 S13       30.18F
OXFORD         PTSUNNY   70  55  60 S9G21     30.20F
$$

MEZ002-015-021-024-NHZ003-005-008-011-012-014-VTZ005-008-202100-
NORTHERN NEW ENGLAND

CITY           SKY/WX    TMP DP  RH WIND       PRES   REMARKS
PORTLAND ME    PTSUNNY   61  52  72 S16G25    30.16F
BANGOR ME      CLOUDY    59  48  67 S13G24    30.14F
CONCORD NH     CLOUDY    66  54  65 S10       30.14F
MANCHESTER NH  PTSUNNY   69  52  54 S13G20    30.12F
NASHUA NH      PTSUNNY   72  55  54 VRB5      30.15F
PORTSMOUTH NH  CLOUDY    64  55  72 SE9       30.14F
JAFFREY NH     CLOUDY    65  54  67 S12G23    30.15F
KEENE NH       CLOUDY    70  52  52 S12G23    30.13F
BURLINGTON VT  PTSUNNY   69  55  60 S15G33    30.00F
MT. WASHINGTON FOG       43  43 100 W53G59      N/A  VSB 0   WCI  29
$$

NYZ052-076-202100-
EASTERN NEW YORK

CITY           SKY/WX    TMP DP  RH WIND       PRES   REMARKS
ALBANY         PTSUNNY   73  55  53 S23G33    30.07F
NEW YORK CITY  PTSUNNY   72  59  63 S18       30.17F
$$

ANZALL-202100-
MARINE OBSERVATIONS

STATION/POSITION TIME  TEMP    WIND        PRES    VSBY  WAVE
                       AIR SEA DIR/SP/G                  HT/PER
                 (UTC) (F)     (DEG/KT/KT) (MB)    (MI)  (FT/S)
BOSTON BUOY      1950   63 61  170/ 16/ 17 1022.1F         3/ 4
BUZZARDS BAY     1900          170/ 13/ 15 1024.3F
NANTUCKET SOUND  1950   65 67  170/ 14/ 16 1023.1F         1/ 3
MASS BAY-STELLWA 1904   62 61  170/ 16/ 19   N/A    1 7/8  4/ 5
ISLE OF SHOALS   1900   60     160/ 20/ 22 1021.5F
S OF BLOCK IS    1908      67                N/A           3/ 8
$$

......................KEY.........................
  SKY/WX - SKY CONDITION/PRESENT WEATHER
  TMP    - TEMPERATURE IN FAHRENHEIT
  DWPT   - DEWPOINT IN FAHRENHEIT
  RH     - RELATIVE HUMIDITY IN PERCENT
  WIND   - DIRECTION AND SPEED IN MPH
  PRES   - MEAN SEA LEVEL PRESSURE IN INCHES OF HG
  WCI    - WIND CHILL INDEX
  VSB    - VISIBILITY IN MILES
  HX     - HEAT INDEX
  TC     - TEMPERATURE IN CELSIUS
  VRB    - VARIABLE WIND DIRECTION
  N/A    - NOT AVAILABLE


USA.gov is the U.S. government's official web portal to all federal, state and local government web resources and services.